Wind_Speed
38 39 40 40 40 41 41 42 42 42 43 43 43 43 43 42 42 42 41 41 41 41 40 40 39 39 39 40 39 39 38 37 37 36 36 36 36 35 35 35 36 36 36
39 39 39 40 40 41 42 42 42 43 44 44 45 45 45 44 44 44 44 43 44 44 43 43 42 42 42 42 41 41 41 40 40 39 38 38 38 38 37 37 37 37 38
38 39 39 40 41 42 42 43 44 44 44 45 46 46 46 46 46 46 46 46 46 46 46 45 45 45 45 44 44 43 42 41 41 41 41 40 40 40 39 39 39 39 39
39 40 40 41 42 42 43 44 45 45 45 46 47 47 48 47 47 47 47 48 48 47 47 47 47 47 47 46 46 45 45 44 43 43 43 43 42 42 42 42 42 41 41
40 40 41 42 43 43 44 44 45 46 47 47 48 48 49 49 49 49 48 49 49 49 49 48 49 48 48 48 48 48 47 46 45 45 45 45 44 44 45 44 44 43 43
39 40 40 41 42 43 44 45 45 47 48 48 48 49 49 49 50 50 49 49 49 51 51 50 50 50 50 50 50 49 49 48 48 48 48 47 46 47 47 47 45 45 45
38 39 40 41 42 43 44 45 46 47 48 49 49 49 48 48 48 48 49 49 50 51 51 52 52 52 52 52 52 51 51 50 50 50 50 49 49 49 49 49 49 47 47
39 39 40 41 42 43 45 45 45 46 47 48 49 49 48 48 47 47 48 49 50 51 52 52 53 53 53 52 52 51 51 51 51 51 51 51 51 51 50 50 50 49 50
38 38 39 40 41 42 42 43 45 46 47 47 47 48 48 47 46 46 46 48 50 51 52 52 52 52 53 52 52 51 51 50 50 50 51 50 51 52 51 51 51 52 51
37 38 38 39 40 41 41 42 43 44 45 45 45 46 46 46 46 46 46 47 48 49 51 50 50 50 51 51 51 50 50 50 49 50 50 50 50 51 51 52 52 52 53
37 37 38 39 40 40 41 41 41 41 42 43 44 44 45 46 46 46 46 46 46 47 48 49 49 49 49 49 49 49 49 49 49 49 49 49 50 50 51 52 53 53 54
36 37 38 39 39 39 39 39 40 40 41 42 42 42 43 44 44 45 45 45 45 45 46 47 47 48 48 47 47 48 49 49 49 49 49 50 50 50 51 51 53 53 54
36 37 38 38 38 38 38 39 39 39 40 41 41 41 42 42 43 43 44 44 43 44 43 44 44 46 45 46 46 47 47 48 48 48 48 48 49 49 50 51 52 53 53
37 37 37 37 37 37 37 37 37 38 38 39 39 38 39 39 40 41 41 42 42 43 42 43 44 44 44 44 45 45 46 46 46 47 47 47 48 49 50 50 51 52 53
36 36 36 36 36 36 35 35 35 36 36 36 36 36 37 36 37 38 40 40 40 40 41 41 43 44 44 44 44 44 45 46 47 47 46 47 48 48 49 49 50 51 51
35 35 35 35 35 33 32 33 33 34 34 34 34 34 35 36 37 37 38 37 37 38 39 39 40 42 44 44 44 45 46 47 47 45 45 46 46 46 47 48 50 50 49
35 35 34 33 32 31 32 32 33 33 33 32 32 33 34 35 35 36 36 35 36 37 37 38 38 40 41 41 41 42 44 44 43 42 42 44 45 46 47 47 47 47 47
33 32 32 32 31 31 32 32 32 31 31 31 31 30 32 34 34 34 34 34 34 35 35 36 36 38 38 39 39 40 40 40 40 39 39 41 43 44 44 44 43 44 45
31 30 30 30 30 31 31 31 30 29 29 29 30 30 31 31 32 31 31 32 33 33 33 34 34 34 35 36 37 37 37 37 38 37 38 39 40 41 41 41 42 43 44
29 28 28 28 29 30 30 30 29 29 29 28 29 29 30 29 29 30 30 31 30 31 31 32 32 32 32 32 34 34 34 34 35 37 38 38 39 40 39 39 40 41 41
27 27 27 27 28 28 28 27 27 28 27 27 28 28 28 27 27 28 27 27 27 28 29 29 29 29 29 29 30 31 33 33 35 35 35 36 36 37 37 37 37 39 39
26 26 26 26 26 25 25 26 26 26 26 27 28 27 26 26 26 25 26 26 26 27 27 27 26 27 27 28 29 31 32 32 32 32 33 33 33 34 34 34 35 36 36
26 26 26 25 25 25 25 25 25 24 24 26 26 25 24 24 23 24 25 25 26 26 26 26 26 26 27 28 29 30 30 30 29 29 30 30 30 31 31 31 31 32 32
26 26 25 25 25 25 25 25 24 24 24 24 24 24 23 23 23 23 24 24 24 25 25 26 26 26 26 26 27 28 28 28 29 29 30 30 29 29 29 29 30 31 30
25 25 25 25 25 25 24 24 24 24 24 23 23 22 22 22 22 23 23 24 25 25 26 26 26 27 27 27 27 27 27 27 27 28 29 29 28 28 28 27 27 26 25
24 24 24 24 25 24 23 23 24 24 23 22 22 22 21 22 22 23 24 25 26 26 26 26 26 27 27 27 27 27 27 27 26 26 26 26 26 25 24 24 25 24 23
Wind_Direction
274 273 273 271 269 268 268 267 266 266 265 265 265 264 265 265 265 266 265 265 265 266 266 267 268 269 270 270 270 271 271 272 273 274 275 276 277 279 280 281 282 282 282
274 273 272 272 270 270 269 268 267 267 265 264 264 265 265 265 265 265 265 265 265 265 266 267 268 268 269 270 270 271 271 271 272 273 274 275 276 277 278 279 280 281 282
273 273 273 273 272 271 270 269 268 268 267 266 265 265 266 265 265 265 264 264 264 265 266 266 267 267 268 268 269 270 270 271 271 272 273 274 274 275 276 277 278 279 281
274 273 273 273 273 272 271 269 267 267 267 266 265 265 265 266 265 264 263 264 264 265 265 266 266 266 267 268 268 269 269 270 270 271 272 273 273 274 274 275 277 277 279
275 274 274 273 273 273 272 270 267 267 267 267 266 266 266 265 265 264 264 264 264 264 264 265 265 265 266 267 267 268 268 268 269 270 271 271 272 273 274 274 275 277 278
276 276 276 276 276 276 274 271 269 268 267 267 266 266 266 265 264 264 264 264 264 264 264 264 265 265 265 266 267 267 267 267 268 269 270 270 270 272 273 274 274 275 277
279 278 278 278 277 277 277 275 272 269 268 267 267 266 266 266 266 265 265 265 264 264 265 264 265 266 266 266 265 266 267 267 267 268 269 270 269 270 273 273 274 274 276
280 279 279 279 280 279 277 276 273 271 269 268 267 266 266 265 266 267 266 265 265 265 265 266 266 267 266 266 266 266 267 268 268 269 270 270 269 269 272 272 274 275 276
280 281 280 280 280 281 280 278 276 274 271 269 268 268 267 266 266 267 267 266 266 266 265 266 266 267 267 267 268 267 267 268 269 269 270 271 271 270 272 272 274 274 274
281 282 282 282 283 282 282 282 279 275 271 270 269 268 267 267 267 267 267 269 268 266 265 265 266 267 268 268 268 268 267 267 268 269 270 271 271 271 272 272 272 273 274
282 282 283 283 285 285 285 283 280 276 273 271 270 268 267 268 268 269 269 269 269 267 267 266 266 268 269 268 268 268 268 268 269 270 271 271 270 271 272 272 273 273 275
284 284 284 285 287 287 286 283 281 279 276 272 270 269 268 269 269 270 270 270 268 268 268 266 266 267 268 269 269 269 270 270 270 270 271 270 270 272 273 274 275 275 276
284 284 285 287 288 288 286 284 282 280 277 273 271 270 269 269 269 270 270 270 269 267 267 268 268 267 268 269 269 270 271 271 271 271 271 272 273 274 275 275 276 277 277
286 286 287 288 288 287 286 285 284 281 277 274 271 271 270 270 271 271 271 270 270 267 266 267 268 269 270 271 271 271 272 272 271 271 272 273 274 275 276 275 277 277 278
288 287 288 288 288 288 287 286 285 281 278 275 272 271 271 272 272 271 269 271 272 269 266 267 270 270 271 272 272 272 273 273 272 272 273 274 276 277 277 276 276 277 277
288 287 288 289 289 288 288 287 286 283 281 278 276 273 273 273 273 272 272 272 272 272 270 270 270 272 273 274 274 274 273 273 274 273 273 275 276 278 279 277 276 277 277
287 288 288 288 288 288 288 288 286 283 280 278 278 277 276 275 274 272 272 272 274 274 273 272 273 274 276 275 275 275 275 274 274 275 276 277 278 278 279 279 278 277 276
285 288 288 287 287 288 289 288 287 285 282 277 279 281 280 278 275 272 272 273 276 275 275 275 277 277 277 277 277 276 276 275 275 278 279 280 280 280 280 281 279 279 277
284 287 288 288 288 289 290 290 288 284 281 281 282 282 282 278 275 272 273 275 277 275 276 278 281 280 279 279 279 277 277 276 277 280 280 281 282 282 282 282 281 281 280
285 288 290 290 291 289 289 290 287 286 286 286 286 285 284 278 275 274 276 277 277 277 278 281 282 282 282 281 281 279 277 278 280 281 282 282 281 282 283 284 282 282 284
285 287 289 290 292 292 291 291 289 288 287 289 287 285 285 281 277 276 277 278 279 281 282 283 283 284 284 283 283 282 281 283 283 283 283 283 283 285 286 286 285 286 287
284 285 287 289 291 293 294 292 290 289 288 289 289 287 286 281 278 276 278 280 282 285 285 286 286 287 286 285 286 286 286 286 286 284 284 286 287 286 286 286 285 287 288
283 284 285 288 290 293 293 292 291 293 292 291 289 286 284 281 278 279 280 282 285 286 287 287 287 287 287 286 287 288 287 286 288 289 289 289 287 286 285 285 285 288 288
282 283 282 286 289 291 293 293 292 295 295 293 292 288 285 282 279 280 282 284 286 288 287 287 288 288 287 289 290 289 287 287 288 291 291 291 289 286 284 286 286 288 287
283 282 281 284 287 289 292 294 294 295 294 293 292 289 285 281 281 283 284 286 287 287 287 287 289 289 290 290 290 290 291 291 292 294 293 291 288 286 284 287 289 289 286
283 282 281 283 286 288 292 294 294 294 294 293 291 289 285 283 284 287 287 287 287 287 287 287 289 290 290 288 285 287 291 294 296 297 293 291 288 287 288 289 293 294 290
Height
5783 5782 5781 5780 5779 5779 5778 5778 5778 5778 5778 5779 5779 5779 5780 5780 5781 5781 5782 5783 5783 5784 5784 5784 5784 5784 5783 5783 5783 5783 5782 5782 5781 5780 5780 5779 5778 5777 5777 5776 5774 5773 5771
5774 5773 5772 5771 5770 5769 5768 5768 5768 5768 5768 5768 5769 5769 5769 5770 5771 5771 5772 5773 5773 5774 5774 5774 5774 5774 5774 5774 5774 5773 5773 5773 5772 5772 5771 5771 5770 5769 5768 5767 5766 5765 5763
5765 5764 5763 5761 5760 5759 5758 5758 5758 5757 5757 5758 5758 5758 5759 5759 5760 5760 5761 5761 5762 5763 5763 5763 5764 5764 5764 5764 5764 5763 5763 5763 5763 5763 5762 5762 5761 5760 5759 5758 5757 5756 5755
5756 5754 5753 5752 5750 5749 5748 5747 5746 5746 5746 5746 5747 5747 5747 5748 5748 5749 5749 5750 5751 5751 5752 5752 5752 5753 5753 5753 5753 5753 5753 5753 5753 5753 5752 5752 5751 5751 5750 5748 5748 5746 5745
5746 5744 5743 5741 5740 5738 5737 5735 5735 5735 5735 5734 5735 5735 5735 5736 5736 5737 5737 5738 5738 5739 5739 5740 5740 5741 5741 5741 5742 5742 5742 5742 5742 5742 5742 5742 5741 5740 5739 5738 5737 5736 5735
5735 5733 5732 5730 5728 5727 5725 5724 5723 5722 5722 5722 5722 5722 5723 5723 5723 5724 5725 5725 5725 5726 5726 5727 5727 5728 5728 5729 5729 5729 5729 5730 5730 5730 5730 5730 5730 5729 5728 5727 5726 5726 5725
5725 5723 5721 5719 5717 5715 5713 5711 5710 5710 5709 5709 5709 5710 5710 5710 5710 5711 5711 5712 5712 5712 5712 5713 5714 5714 5715 5715 5716 5716 5716 5716 5717 5717 5717 5718 5717 5717 5716 5715 5715 5714 5713
5715 5713 5711 5708 5706 5704 5701 5699 5697 5696 5696 5695 5695 5695 5697 5699 5698 5698 5698 5698 5698 5698 5699 5699 5700 5700 5700 5701 5702 5703 5703 5703 5703 5703 5704 5704 5704 5704 5703 5703 5702 5702 5701
5704 5702 5700 5698 5695 5693 5690 5688 5685 5683 5683 5682 5682 5682 5682 5684 5686 5687 5686 5685 5685 5685 5685 5685 5686 5686 5687 5687 5688 5689 5689 5689 5689 5690 5690 5690 5690 5691 5690 5689 5689 5689 5688
5694 5692 5690 5687 5685 5682 5679 5676 5672 5670 5670 5670 5669 5669 5670 5671 5672 5674 5674 5673 5672 5671 5672 5672 5673 5673 5674 5674 5675 5676 5676 5676 5676 5676 5676 5676 5677 5677 5677 5676 5676 5675 5675
5684 5682 5680 5677 5674 5671 5667 5664 5660 5658 5657 5657 5657 5657 5658 5658 5658 5659 5661 5662 5661 5660 5659 5660 5661 5661 5661 5662 5662 5663 5663 5663 5664 5664 5663 5663 5663 5663 5663 5662 5662 5661 5660
5675 5672 5669 5667 5663 5660 5656 5653 5649 5647 5646 5646 5646 5645 5646 5646 5647 5647 5648 5648 5649 5648 5648 5648 5649 5649 5649 5650 5651 5651 5651 5651 5651 5651 5651 5650 5650 5650 5650 5649 5648 5647 5646
5665 5663 5660 5657 5653 5650 5646 5643 5639 5637 5636 5635 5635 5634 5635 5635 5635 5635 5635 5636 5637 5637 5637 5637 5638 5638 5638 5638 5639 5639 5639 5638 5638 5638 5638 5638 5637 5637 5636 5636 5634 5633 5631
5656 5653 5650 5647 5643 5640 5636 5633 5630 5628 5626 5625 5624 5624 5624 5624 5624 5624 5624 5625 5625 5627 5627 5627 5627 5627 5627 5627 5627 5627 5627 5626 5626 5626 5626 5625 5624 5624 5623 5622 5620 5619 5617
5646 5643 5640 5637 5634 5630 5627 5624 5621 5619 5617 5616 5615 5614 5614 5614 5614 5614 5614 5614 5614 5615 5618 5617 5617 5616 5616 5616 5616 5615 5615 5614 5614 5614 5613 5613 5612 5610 5609 5608 5607 5605 5603
5636 5634 5631 5628 5625 5621 5618 5615 5612 5610 5608 5607 5606 5605 5605 5605 5605 5605 5605 5604 5604 5605 5606 5607 5606 5605 5605 5604 5604 5603 5603 5602 5602 5601 5600 5600 5598 5597 5596 5594 5593 5592 5590
5627 5625 5622 5619 5616 5613 5610 5607 5604 5602 5600 5599 5598 5597 5597 5596 5595 5596 5596 5596 5596 5596 5596 5597 5596 5595 5594 5593 5593 5592 5591 5590 5590 5589 5589 5587 5586 5584 5583 5581 5580 5578 5577
5618 5616 5613 5611 5608 5606 5603 5600 5597 5595 5593 5592 5591 5590 5589 5587 5587 5587 5587 5587 5587 5587 5587 5587 5587 5586 5585 5583 5582 5582 5581 5580 5579 5579 5577 5576 5574 5573 5570 5569 5567 5565 5564
5610 5608 5606 5603 5601 5599 5596 5593 5590 5589 5587 5585 5584 5583 5581 5580 5579 5579 5579 5579 5579 5578 5578 5577 5577 5576 5575 5573 5572 5572 5571 5570 5569 5568 5567 5565 5563 5561 5559 5557 5556 5554 5552
5602 5601 5599 5597 5594 5592 5589 5586 5584 5582 5581 5579 5577 5575 5574 5572 5572 5572 5572 5572 5571 5570 5570 5569 5568 5568 5566 5564 5563 5563 5562 5561 5560 5558 5556 5554 5552 5550 5548 5546 5545 5543 5541
5595 5594 5592 5590 5588 5585 5583 5580 5578 5576 5575 5573 5571 5569 5568 5566 5566 5565 5565 5565 5564 5563 5562 5561 5560 5559 5558 5556 5555 5554 5553 5553 5551 5549 5546 5545 5542 5540 5538 5535 5533 5532 5530
5589 5588 5586 5585 5583 5580 5578 5575 5573 5571 5569 5567 5565 5563 5562 5560 5560 5559 5559 5559 5558 5556 5555 5554 5553 5551 5550 5549 5547 5546 5545 5544 5542 5541 5537 5535 5532 5530 5528 5526 5524 5522 5521
5583 5582 5581 5579 5577 5575 5573 5570 5568 5565 5563 5561 5559 5557 5556 5555 5554 5554 5554 5553 5552 5550 5549 5547 5546 5545 5543 5542 5540 5538 5536 5534 5533 5530 5528 5526 5523 5521 5519 5517 5515 5514 5512
5577 5576 5575 5574 5572 5570 5567 5565 5562 5560 5558 5555 5553 5552 5551 5550 5549 5548 5548 5547 5546 5544 5543 5541 5540 5538 5537 5534 5532 5530 5528 5526 5525 5522 5519 5517 5515 5513 5511 5509 5507 5505 5504
5571 5570 5569 5568 5566 5564 5562 5560 5557 5555 5553 5551 5549 5547 5546 5545 5544 5543 5542 5541 5540 5538 5537 5535 5534 5531 5529 5527 5525 5523 5521 5519 5517 5514 5511 5509 5507 5506 5504 5503 5500 5498 5497
5566 5565 5564 5562 5561 5559 5557 5555 5552 5550 5548 5546 5544 5542 5541 5540 5539 5537 5536 5535 5534 5532 5531 5529 5527 5525 5522 5521 5519 5516 5514 5512 5510 5508 5505 5502 5500 5499 5498 5496 5494 5492 5490